Content
SEND FEEDBACK

Daily
Averages
Monthly
Summary
United States of America

FLORENCE, ALABAMA


Home > North America > United States > Alabama
Elevation: 474 feet     Latitude: 34 48N     Longitude: 087 42W

WEATHER
 
SELECT A DAY
Number of Records: 201,255;   Date Range: 1/1/95 - 7/23/14
 
SHARE

PRINT THIS DATA

[ ← Previous Day ]
WEATHER ALMANAC - JANUARY 31, 2013
[ Next Day → ]
[ °C ]   °F
Weather ElementAverageHighLow
Temperature41.6 °F51.1 °F (2:53 pm)32 °F (4:53 am)
Dewpoint24.9 °F28.9 °F (10:53 pm)21.9 °F (12:53 pm)
Humidity53.3 %75 % (6:01 am)32 % (2:53 pm)
Barometer30.12 in30.20 in (10:53 am)30.03 in (2:53 am)
Wind Speed11.7 mph17.3 mph (10:37 pm)
Wind Gust28.8 mph (10:37 pm)
Weather ElementAverage
Visibility10 mi
Wind DirectionWSW (259.6 °)

Weather ElementTotal
Precipitation---
Heating Degree Days23.5 (Base 65)
Averaged from 24 records on January 31, 2013
WEATHER CONDITIONS BREAKOUT
WIND DIRECTION BREAKOUT
WEATHER BY HOUR - JANUARY 31, 2013
[ °C ]   °F
Local TimeTemperatureDewpointHumidityBarometerVisibilityWind DirectionWind SpeedGust SpeedPrecipitationEventsConditions
1:53 AM37.0 °F24.1 °F59 %30.04 in10.0 miWNW (290°)16.1 mphOvercast
2:53 AM35.1 °F24.1 °F64 %30.03 in10.0 miWNW (290°)13.8 mph20.7 mphOvercast
3:53 AM34.0 °F23.0 °F64 %30.04 in10.0 miWNW (290°)13.8 mphClear
4:53 AM32.0 °F24.1 °F73 %30.07 in10.0 miWSW (250°)8.1 mphPartly Cloudy
5:07 AM33.8 °F24.8 °F70 %30.08 in10.0 miWSW (250°)9.2 mphMostly Cloudy
5:53 AM33.1 °F24.1 °F70 %30.09 in10.0 miWest (270°)9.2 mphMostly Cloudy
6:01 AM32.0 °F24.8 °F75 %30.08 in10.0 miWest (260°)6.9 mphScattered Clouds
6:53 AM32.0 °F23.0 °F69 %30.12 in10.0 miWest (270°)9.2 mphClear
7:53 AM33.1 °F23.0 °F66 %30.17 in10.0 miWest (270°)13.8 mphClear
9:53 AM39.0 °F24.1 °F55 %30.19 in10.0 miWNW (290°)16.1 mph23.0 mphClear
10:53 AM42.1 °F25.0 °F51 %30.20 in10.0 miWSW (250°)11.5 mphClear
11:53 AM44.1 °F23.0 °F43 %30.17 in10.0 miWSW (250°)10.4 mphClear
12:53 PM48.0 °F21.9 °F36 %30.14 in10.0 miWest (280°)12.7 mph19.6 mphClear
1:53 PM50.0 °F21.9 °F33 %30.13 in10.0 miWNW (290°)10.4 mphClear
2:53 PM51.1 °F21.9 °F32 %30.12 in10.0 miWSW (240°)16.1 mph21.9 mphClear
3:53 PM51.1 °F24.1 °F35 %30.10 in10.0 miWSW (240°)16.1 mph20.7 mphClear
4:53 PM50.0 °F26.1 °F39 %30.10 in10.0 miSW (230°)11.5 mphClear
5:53 PM46.9 °F26.1 °F44 %30.13 in10.0 miSW (230°)8.1 mphClear
6:53 PM45.0 °F26.1 °F48 %30.12 in10.0 miSouth (190°)4.6 mphClear
7:53 PM44.1 °F28.0 °F53 %30.14 in10.0 miSW (230°)6.9 mphClear
8:53 PM45.0 °F28.0 °F52 %30.14 in10.0 miWSW (250°)11.5 mphClear
9:53 PM46.9 °F28.0 °F48 %30.14 in10.0 miWSW (240°)11.5 mphPartly Cloudy
10:37 PM46.4 °F28.4 °F50 %30.17 in10.0 miWNW (290°)17.3 mph28.8 mphScattered Clouds
10:53 PM46.0 °F28.9 °F51 %30.18 in10.0 miWNW (290°)16.1 mph20.7 mphClear
Hourly data recorded from KMSL, located miles away from Florence, Alabama







STORIES FROM OUR PARTNERS